Weather History for KBKV - June, 2013

Change the Weather History Date:

Thursday, June 20, 2013

  Actual Average Record
Temperature  
Mean Temperature 81 °F -  
Max Temperature 91 °F 88 °F 95 °F (1998)
Min Temperature 71 °F 68 °F 66 °F (1998)
Cooling Degree Days 16    
Growing Degree Days 31 (Base 50)    
Moisture  
Dew Point 71 °F    
Average Humidity 77    
Maximum Humidity 100    
Minimum Humidity 44    
Precipitation  
Precipitation 0.01 in - - ()
Sea Level Pressure  
Sea Level Pressure 30.07 in    
Wind  
Wind Speed 2 mph (WSW)    
Max Wind Speed 12 mph    
Max Gust Speed 24 mph    
Visibility 9 miles    
Events      
Averages and records for this station are not official NWS values.
T = Trace of Precipitation, MM = Missing Value Source: NWS Daily Summary

Daily Weather History Graph

Daily Weather History Graph

Search for Another Location

Airport or City:

Trip Planner

Search our weather history database for the weather conditions in past years. The results will help you decide how hot, cold, wet, or windy it might be!

Date:

Astronomy

Jun. 20, 2013 Rise Set
Actual Time 6:32 AM EDT 8:30 PM EDT
Civil Twilight 6:05 AM EDT 8:57 PM EDT
Nautical Twilight 5:33 AM EDT 9:29 PM EDT
Astronomical Twilight 4:58 AM EDT 10:04 PM EDT
Moon 5:39 PM EDT (6/20) 3:47 AM EDT (6/20)
Length of Visible Light 14h 51m
Length of Day
13h 57m
Waxing Gibbous, 89% of the Moon is Illuminated
Jun 20
Waxing Gibbous
Jun 23
Full
Jun 30
Last Quarter
Jul 8
New
Jul 15
First Quarter

Hourly Weather History & Observations

Time (EDT) Temp. Heat Index Dew Point Humidity Pressure Visibility Wind Dir Wind Speed Gust Speed Precip Events Conditions
12:53 AM 72.0 °F - 71.1 °F 97% 30.06 in 10.0 mi Calm Calm - N/A   Clear
1:53 AM 73.0 °F - 71.1 °F 93% 30.05 in 10.0 mi Calm Calm - N/A   Clear
2:53 AM 71.1 °F - 70.0 °F 96% 30.04 in 8.0 mi Calm Calm - N/A   Clear
3:53 AM 73.0 °F - 71.1 °F 93% 30.03 in 10.0 mi Calm Calm - N/A   Clear
4:53 AM 73.0 °F - 71.1 °F 93% 30.03 in 9.0 mi SSE 3.5 mph - N/A   Clear
5:53 AM 72.0 °F - 70.0 °F 93% 30.04 in 3.0 mi Calm Calm - N/A   Clear
6:17 AM 71.6 °F - 71.6 °F 100% 30.06 in 1.8 mi Calm Calm - N/A   Clear
6:24 AM 71.6 °F - 71.6 °F 100% 30.06 in 1.5 mi Calm Calm - N/A   Clear
6:26 AM 71.6 °F - 71.6 °F 100% 30.06 in 2.0 mi Calm Calm - N/A   Clear
6:34 AM 73.4 °F - 71.6 °F 94% 30.06 in 8.0 mi Calm Calm - N/A   Clear
6:53 AM 72.0 °F - 71.1 °F 97% 30.06 in 8.0 mi Calm Calm - N/A   Clear
7:53 AM 75.9 °F - 73.9 °F 94% 30.08 in 10.0 mi ESE 3.5 mph - 0.01 in   Clear
8:53 AM 81.0 °F 86.7 °F 75.0 °F 82% 30.09 in 10.0 mi Calm Calm - N/A   Clear
9:53 AM 84.9 °F 92.1 °F 73.9 °F 69% 30.10 in 10.0 mi Calm Calm - N/A   Clear
10:53 AM 88.0 °F 94.7 °F 72.0 °F 59% 30.10 in 10.0 mi Calm Calm - N/A   Partly Cloudy
11:53 AM 90.0 °F 96.9 °F 72.0 °F 55% 30.10 in 10.0 mi Calm Calm - N/A   Scattered Clouds
12:53 PM 88.0 °F 93.8 °F 71.1 °F 57% 30.10 in 10.0 mi WSW 6.9 mph - N/A   Mostly Cloudy
1:53 PM 91.0 °F 96.6 °F 70.0 °F 50% 30.08 in 10.0 mi West 10.4 mph - N/A   Scattered Clouds
2:53 PM 91.0 °F 96.6 °F 70.0 °F 50% 30.06 in 10.0 mi WNW 11.5 mph - N/A   Clear
3:53 PM 91.9 °F 95.4 °F 66.9 °F 44% 30.05 in 10.0 mi WNW 10.4 mph - N/A   Clear
4:53 PM 91.0 °F 95.6 °F 69.1 °F 48% 30.04 in 10.0 mi WNW 9.2 mph - N/A   Clear
5:53 PM 90.0 °F 93.6 °F 68.0 °F 48% 30.05 in 10.0 mi WNW 8.1 mph - N/A   Clear
6:53 PM 89.1 °F 94.1 °F 70.0 °F 53% 30.06 in 10.0 mi Variable 3.5 mph - N/A   Clear
7:42 PM 80.6 °F 83.2 °F 68.0 °F 65% 30.10 in 10.0 mi East 9.2 mph 24.2 mph N/A   Scattered Clouds
7:53 PM 80.1 °F 82.7 °F 68.0 °F 67% 30.10 in 10.0 mi East 9.2 mph 18.4 mph N/A   Partly Cloudy
8:53 PM 75.9 °F - 69.1 °F 79% 30.08 in 10.0 mi Calm Calm - N/A   Clear
9:53 PM 73.9 °F - 70.0 °F 87% 30.08 in 10.0 mi Calm Calm - N/A   Clear
10:53 PM 73.0 °F - 69.1 °F 87% 30.09 in 10.0 mi Calm Calm - N/A   Clear
11:53 PM 72.0 °F - 70.0 °F 93% 30.10 in 10.0 mi East 4.6 mph - N/A   Clear